Location: Unspecified
(41.5000°N, 0.0000°E)
Time: 18:11:17
(UTC+00:00)

A-11 Canister half - Pass Details

Date: 02 July 2019
Orbit: 1526 x 1683 km, 47.3° (Epoch: 15 July)

Event Time Altitude Azimuth Distance (km) Brightness Sun altitude
Exits shadow 03:16:49 - 259° (WSW) 4,221 10.8 -11.5°
Reaches altitude 10° 03:18:10 10° 260° (W) 3,793 10.6 -11.3°
Maximum altitude 03:27:45 71° 344° (NNW) 1,631 9.3 -10.1°
Drops below altitude 10° 03:37:06 10° 68° (ENE) 3,703 12.3 -8.8°
Sets 03:40:09 0° 71° (ENE) 4,680 13.0 -8.3°
